Location: Boiro
(42.6475°N, 8.8834°W)
Time: 18:27:57
(UTC+01:00)

SL-8 DEB - Visible Passes

Search period start: 28 November 2022 00:00
Search period end: 08 December 2022 00:00
Orbit: 889 x 1013 km, 83.1° (Epoch: 28 November)

Date Brightness Start Highest point End Pass type
(mag) Time Alt. Az. Time Alt. Az. Time Alt. Az.
28 Nov ? 06:58:36 10° N 07:04:18 55° E 07:10:00 10° SSE visible
28 Nov ? 18:43:02 10° ESE 18:46:39 16° E 18:50:15 10° NE visible
28 Nov ? 20:24:40 10° SSW 20:30:48 73° W 20:36:48 10° N visible
28 Nov ? 22:15:31 10° WNW 22:16:42 11° WNW 22:17:53 10° NW visible
29 Nov ? 05:34:19 10° NE 05:36:41 12° ENE 05:39:01 10° E visible
29 Nov ? 07:16:34 10° N 07:22:24 88° E 07:28:15 10° S visible
29 Nov ? 18:59:29 10° SE 19:04:26 26° E 19:09:16 10° NNE visible
29 Nov ? 20:43:06 10° SSW 20:48:57 46° WNW 20:54:41 10° N visible
30 Nov ? 05:50:57 10° NNE 05:55:09 20° ENE 05:59:20 10° ESE visible
30 Nov ? 07:34:43 10° NNW 07:40:25 58° W 07:46:07 10° S visible
30 Nov ? 19:16:37 10° SSE 19:22:17 41° E 19:27:49 10° NNE visible
30 Nov ? 21:01:59 10° SW 21:07:12 29° WNW 21:12:21 10° NNW visible
01 Dec ? 06:08:21 10° NNE 06:13:29 31° ENE 06:18:37 10° SE visible
01 Dec ? 07:53:05 10° NNW 07:58:19 36° W 08:03:35 10° SSW visible
01 Dec ? 19:34:12 10° S 19:40:13 66° E 19:46:07 10° NNE visible
01 Dec ? 21:21:25 10° WSW 21:25:34 19° WNW 21:29:40 10° NNW visible
02 Dec ? 06:26:04 10° N 06:31:43 50° ENE 06:37:22 10° SSE visible
02 Dec ? 08:11:45 10° NW 08:16:08 23° W 08:20:32 10° SW visible
02 Dec ? 19:52:10 10° S 19:58:16 79° W 20:04:13 10° N visible
02 Dec ? 21:42:05 10° W 21:44:03 12° WNW 21:46:01 10° NW visible
03 Dec ? 05:02:20 10° NE 05:04:00 11° ENE 05:05:41 10° E visible
03 Dec ? 06:43:59 10° N 06:49:50 80° E 06:55:42 10° S visible
03 Dec ? 18:27:17 10° SE 18:31:56 24° E 18:36:30 10° NE visible
03 Dec ? 20:10:31 10° SSW 20:16:23 50° WNW 20:22:07 10° N visible
04 Dec ? 05:18:33 10° NNE 05:22:30 18° ENE 05:26:26 10° ESE visible
04 Dec ? 07:02:06 10° NNW 07:07:50 65° W 07:13:38 10° S visible
04 Dec ? 18:44:16 10° SSE 18:49:45 37° E 18:55:08 10° NNE visible
04 Dec ? 20:29:17 10° SW 20:34:36 32° WNW 20:39:50 10° NNW visible
05 Dec ? 05:35:51 10° NNE 05:40:51 29° ENE 05:45:52 10° SE visible
05 Dec ? 07:20:24 10° NNW 07:25:46 40° W 07:31:12 10° SSW visible
05 Dec ? 19:01:46 10° S 19:07:40 60° E 19:13:28 10° NNE visible
05 Dec ? 20:48:35 10° WSW 20:52:56 20° WNW 20:57:14 10° NNW visible
06 Dec ? 05:54:05 13° N 05:59:05 45° ENE 06:04:43 10° SSE visible
06 Dec ? 07:38:58 10° NNW 07:43:36 25° W 07:48:16 10° SW visible
06 Dec ? 19:19:38 10° S 19:25:41 87° W 19:31:36 10° N visible
06 Dec ? 21:08:52 10° W 21:11:22 13° WNW 21:13:53 10° NW visible
07 Dec ? 04:31:07 10° ENE 04:31:19 10° ENE 04:31:29 10° ENE visible
07 Dec ? 06:13:35 24° N 06:17:13 73° E 06:23:07 10° SSE visible
07 Dec ? 07:58:04 10° NW 08:01:19 15° W 08:04:37 10° WSW visible
07 Dec ? 19:37:55 10° SSW 19:43:46 55° W 19:49:32 10° N visible
